Total_Precipitation_Accumulation
1.30 1.30 1.40 1.57 1.68 1.75 1.93 1.92 1.89 1.92 2.01 2.03 2.02 2.03 1.95 1.85 1.98 2.21 2.30 2.50 2.62 2.68 2.64 2.68 2.67 2.80 2.85 2.72 2.81 2.97 3.24 3.44 3.04 2.49 2.57 2.70 2.63 2.38 2.16 1.94 1.82 1.80 1.78
1.28 1.33 1.40 1.51 1.60 1.69 1.79 1.90 1.96 1.96 2.05 2.09 2.09 2.05 1.88 1.87 1.99 2.09 2.22 2.41 2.54 2.61 2.71 2.82 2.59 2.73 2.86 2.80 2.82 2.84 3.00 3.29 3.11 2.92 2.86 2.93 2.85 2.57 2.32 2.04 1.71 1.55 1.61
1.41 1.40 1.37 1.44 1.45 1.52 1.66 1.76 1.89 1.97 2.06 2.17 2.19 2.10 2.04 2.07 2.14 2.20 2.29 2.43 2.50 2.54 2.64 2.64 2.58 2.75 2.64 2.73 2.84 2.80 2.82 2.85 2.97 2.87 2.71 2.79 2.70 2.50 2.32 2.03 1.77 1.73 1.53
1.33 1.37 1.41 1.44 1.50 1.62 1.73 1.82 1.92 1.94 1.99 2.00 1.97 2.05 2.11 2.15 2.20 2.22 2.22 2.23 2.28 2.35 2.30 2.22 2.18 2.24 2.30 2.52 2.51 2.51 2.62 2.72 2.80 2.68 2.60 2.66 2.66 2.67 2.51 2.20 2.05 1.90 1.68
1.37 1.33 1.41 1.54 1.58 1.63 1.66 1.71 1.79 1.82 1.78 1.95 1.98 2.09 2.17 2.12 2.00 2.09 2.12 2.06 2.22 2.14 1.97 1.93 1.94 2.04 2.08 2.17 2.04 2.16 2.38 2.45 2.51 2.57 2.60 2.75 2.73 2.85 2.70 2.40 2.28 2.16 1.86
1.39 1.49 1.59 1.59 1.51 1.59 1.64 1.69 1.73 1.79 1.88 1.96 1.99 2.12 2.19 2.04 2.09 2.13 2.16 2.14 2.16 2.08 2.01 1.93 1.77 1.78 1.78 1.81 1.80 1.85 2.02 2.16 2.35 2.52 2.54 2.62 2.68 2.66 2.65 2.50 2.39 2.21 1.92
1.44 1.46 1.66 1.77 1.68 1.75 1.78 1.80 1.79 1.83 1.99 2.07 2.17 2.23 2.18 2.31 2.27 2.09 2.12 2.07 2.07 2.07 2.08 2.04 1.72 1.53 1.68 1.63 1.75 1.73 1.69 1.76 1.87 2.04 2.13 2.24 2.47 2.59 2.70 2.59 2.59 2.46 2.14
1.53 1.62 1.90 2.07 1.93 1.93 1.96 1.98 2.03 2.14 2.20 2.29 2.32 2.25 2.23 2.34 2.33 1.99 1.91 1.82 1.89 1.93 1.94 1.98 1.97 1.85 1.83 1.85 1.88 1.86 1.76 1.71 1.81 1.81 1.83 2.04 2.41 2.73 2.78 2.71 2.76 2.62 2.31
1.73 1.88 2.14 2.36 2.47 2.43 2.28 2.34 2.43 2.43 2.40 2.47 2.53 2.51 2.40 2.44 2.31 1.95 1.81 1.69 1.77 1.82 1.83 1.82 1.84 1.74 1.80 1.70 1.66 1.66 1.66 1.61 1.61 1.62 1.62 1.75 2.05 2.44 2.64 2.67 2.75 2.65 2.40
1.93 1.96 2.17 2.42 2.53 2.50 2.47 2.63 2.73 2.63 2.53 2.58 2.48 2.36 2.24 2.26 2.24 1.91 1.70 1.59 1.70 1.79 1.87 1.83 1.80 1.71 1.70 1.53 1.43 1.46 1.43 1.46 1.57 1.55 1.50 1.50 1.63 1.94 2.26 2.25 2.34 2.47 2.23
2.03 2.04 2.15 2.38 2.66 2.61 2.63 2.70 2.78 2.76 2.77 2.77 2.67 2.54 2.36 2.29 2.30 1.98 1.76 1.59 1.66 1.71 1.63 1.61 1.60 1.60 1.40 1.32 1.29 1.28 1.31 1.33 1.47 1.51 1.50 1.53 1.62 1.72 1.84 1.91 2.03 2.13 2.12
2.06 2.05 2.11 2.37 2.49 2.55 2.71 2.76 2.85 2.94 2.91 2.87 2.84 2.64 2.58 2.49 2.22 1.94 1.76 1.70 1.74 1.75 1.68 1.63 1.62 1.52 1.28 1.19 1.07 1.03 1.08 1.07 1.10 1.23 1.28 1.32 1.41 1.50 1.61 1.77 1.96 2.05 2.07
1.83 1.84 1.96 2.15 2.26 2.41 2.52 2.46 2.52 2.66 2.63 2.64 2.64 2.55 2.58 2.69 2.51 2.05 1.75 1.66 1.69 1.72 1.80 1.87 1.68 1.52 1.36 1.22 1.17 1.10 1.02 0.94 1.02 1.11 1.16 1.15 1.22 1.36 1.56 1.79 1.97 2.19 2.13
1.76 1.74 1.86 2.11 2.23 2.31 2.37 2.33 2.38 2.43 2.48 2.54 2.57 2.51 2.53 2.66 2.61 2.28 1.94 1.73 1.64 1.57 1.57 1.57 1.48 1.42 1.31 1.18 1.12 1.02 0.92 0.94 1.01 1.02 1.08 1.16 1.26 1.45 1.56 1.60 1.72 1.95 2.13
1.89 1.88 2.01 2.09 2.17 2.33 2.40 2.42 2.41 2.38 2.35 2.35 2.34 2.27 2.29 2.40 2.42 2.20 1.91 1.73 1.63 1.59 1.54 1.50 1.46 1.49 1.39 1.30 1.24 1.19 1.18 1.19 1.13 1.08 1.14 1.25 1.30 1.38 1.51 1.59 1.69 1.77 1.81
2.02 2.01 2.01 1.99 2.04 2.06 2.08 2.05 2.00 1.92 1.91 1.88 1.86 1.77 1.73 1.89 1.87 1.59 1.45 1.49 1.50 1.47 1.37 1.36 1.43 1.49 1.45 1.38 1.34 1.30 1.29 1.26 1.23 1.23 1.26 1.32 1.38 1.42 1.51 1.67 1.81 1.85 1.75
2.07 1.94 1.85 1.80 1.82 1.82 1.86 1.92 1.96 1.85 1.77 1.67 1.58 1.45 1.35 1.55 1.60 1.42 1.30 1.27 1.26 1.25 1.21 1.27 1.31 1.40 1.47 1.38 1.28 1.21 1.19 1.22 1.31 1.34 1.34 1.38 1.47 1.52 1.59 1.70 1.85 1.97 1.91
2.10 1.96 1.77 1.68 1.69 1.72 1.83 1.87 1.86 1.86 1.81 1.61 1.44 1.33 1.18 1.26 1.37 1.33 1.24 1.11 1.09 1.09 1.11 1.22 1.29 1.35 1.43 1.40 1.30 1.29 1.32 1.35 1.34 1.36 1.39 1.42 1.51 1.58 1.64 1.69 1.77 1.86 1.89
2.07 1.95 1.80 1.74 1.75 1.70 1.67 1.72 1.69 1.68 1.74 1.64 1.44 1.36 1.30 1.29 1.36 1.32 1.19 1.02 1.05 1.07 1.09 1.16 1.22 1.30 1.34 1.34 1.35 1.39 1.41 1.44 1.39 1.41 1.46 1.51 1.53 1.63 1.65 1.70 1.80 1.92 1.93
1.76 1.75 1.70 1.72 1.71 1.65 1.65 1.68 1.73 1.78 1.81 1.72 1.56 1.45 1.34 1.30 1.31 1.31 1.19 1.09 1.09 1.08 1.09 1.16 1.24 1.29 1.35 1.39 1.48 1.56 1.56 1.59 1.61 1.57 1.59 1.65 1.60 1.61 1.64 1.68 1.79 1.84 1.85
1.57 1.51 1.46 1.43 1.45 1.48 1.50 1.61 1.74 1.80 1.83 1.72 1.49 1.33 1.22 1.08 1.15 1.17 1.21 1.26 1.26 1.29 1.32 1.33 1.38 1.43 1.46 1.54 1.62 1.69 1.71 1.72 1.75 1.70 1.68 1.74 1.74 1.76 1.76 1.72 1.73 1.83 1.85
1.65 1.46 1.29 1.23 1.27 1.34 1.50 1.65 1.68 1.66 1.60 1.53 1.41 1.29 1.26 1.13 1.11 1.14 1.20 1.21 1.23 1.28 1.29 1.30 1.31 1.38 1.43 1.50 1.55 1.59 1.62 1.63 1.69 1.72 1.69 1.70 1.72 1.70 1.73 1.71 1.66 1.74 1.84
1.46 1.26 1.08 1.05 1.10 1.25 1.46 1.68 1.70 1.57 1.44 1.38 1.37 1.35 1.33 1.28 1.21 1.18 1.21 1.22 1.20 1.18 1.20 1.28 1.32 1.35 1.40 1.39 1.39 1.44 1.45 1.46 1.48 1.55 1.64 1.62 1.64 1.66 1.68 1.72 1.71 1.74 1.82
1.33 1.17 1.04 1.01 1.07 1.21 1.40 1.61 1.60 1.47 1.38 1.39 1.38 1.40 1.41 1.38 1.30 1.25 1.24 1.26 1.25 1.20 1.18 1.24 1.29 1.29 1.32 1.35 1.30 1.23 1.20 1.18 1.19 1.30 1.46 1.58 1.60 1.65 1.65 1.68 1.74 1.74 1.82
1.24 1.17 1.08 1.08 1.16 1.31 1.52 1.65 1.57 1.44 1.40 1.38 1.36 1.44 1.48 1.46 1.44 1.42 1.42 1.44 1.42 1.39 1.31 1.25 1.25 1.21 1.18 1.21 1.25 1.21 1.21 1.09 1.03 1.08 1.18 1.33 1.39 1.49 1.55 1.59 1.70 1.75 1.77
1.21 1.19 1.15 1.19 1.29 1.41 1.52 1.58 1.54 1.48 1.49 1.44 1.39 1.43 1.50 1.55 1.58 1.61 1.61 1.55 1.48 1.42 1.33 1.26 1.21 1.20 1.16 1.11 1.08 1.08 1.05 0.99 0.95 1.01 1.05 1.13 1.22 1.32 1.42 1.49 1.53 1.62 1.64